TimeMST,TemperatureF,Dew PointF,Humidity,Sea Level PressureIn,VisibilityMPH,Wind Direction,Wind SpeedMPH,Gust SpeedMPH,PrecipitationIn,Events,Conditions,WindDirDegrees,DateUTC
12:15 AM,46.4,35.6,66,29.98,10.0,Calm,Calm,-,N/A,,Clear,0,2013-01-28 07:15:00
12:35 AM,44.6,35.6,71,29.98,10.0,Calm,Calm,-,N/A,,Clear,0,2013-01-28 07:35:00
12:55 AM,44.6,35.6,71,29.97,10.0,Calm,Calm,-,N/A,,Clear,0,2013-01-28 07:55:00
1:15 AM,44.6,35.6,71,29.98,10.0,South,8.1,-,N/A,,Clear,170,2013-01-28 08:15:00
1:35 AM,44.6,35.6,71,29.98,10.0,South,8.1,-,N/A,,Clear,180,2013-01-28 08:35:00
1:55 AM,44.6,35.6,71,29.98,10.0,Calm,Calm,-,N/A,,Clear,0,2013-01-28 08:55:00
2:15 AM,44.6,35.6,71,29.97,10.0,Calm,Calm,-,N/A,,Clear,0,2013-01-28 09:15:00
2:35 AM,44.6,35.6,71,29.97,10.0,Calm,Calm,-,N/A,,Clear,0,2013-01-28 09:35:00
2:55 AM,44.6,35.6,71,29.97,10.0,Calm,Calm,-,N/A,,Clear,0,2013-01-28 09:55:00
3:15 AM,44.6,35.6,71,29.96,10.0,South,4.6,-,N/A,,Clear,180,2013-01-28 10:15:00
3:35 AM,44.6,35.6,71,29.96,10.0,Calm,Calm,-,N/A,,Clear,0,2013-01-28 10:35:00
3:55 AM,44.6,35.6,71,29.95,10.0,Calm,Calm,-,N/A,,Clear,0,2013-01-28 10:55:00
5:50 AM,41.0,37.4,87,29.94,10.0,Calm,Calm,-,N/A,,Clear,0,2013-01-28 12:50:00
6:50 AM,42.8,39.2,87,29.94,10.0,Calm,Calm,-,N/A,,Clear,0,2013-01-28 13:50:00
7:45 AM,48.2,44.6,87,29.94,10.0,Calm,Calm,-,N/A,,Clear,0,2013-01-28 14:45:00
8:50 AM,55.4,48.2,77,29.95,10.0,South,8.1,-,N/A,,Clear,170,2013-01-28 15:50:00
9:50 AM,62.6,44.6,52,29.95,10.0,South,16.1,20.7,N/A,,Clear,180,2013-01-28 16:50:00
10:50 AM,66.2,39.2,37,29.92,10.0,South,20.7,-,N/A,,Clear,190,2013-01-28 17:50:00
11:50 AM,68.0,32.0,26,29.89,10.0,SSW,23.0,28.8,N/A,,Clear,200,2013-01-28 18:50:00
12:50 PM,69.8,30.2,23,29.85,10.0,SSW,24.2,33.4,N/A,,Clear,200,2013-01-28 19:50:00
1:50 PM,68.0,23.0,18,29.83,10.0,SSW,28.8,35.7,N/A,,Clear,210,2013-01-28 20:50:00
2:50 PM,68.0,19.4,16,29.82,10.0,SSW,26.5,34.5,N/A,,Clear,210,2013-01-28 21:50:00
3:50 PM,68.0,26.6,21,29.82,10.0,SSW,21.9,29.9,N/A,,Clear,210,2013-01-28 22:50:00
4:50 PM,64.4,26.6,24,29.83,10.0,SSW,15.0,-,N/A,,Clear,210,2013-01-28 23:50:00
5:15 PM,64.4,24.8,22,29.83,10.0,SW,12.7,-,N/A,,Clear,230,2013-01-29 00:15:00
5:35 PM,62.6,23.0,22,29.83,10.0,SW,9.2,-,N/A,,Clear,220,2013-01-29 00:35:00
5:45 PM,60.8,23.0,23,29.83,10.0,Calm,Calm,-,N/A,,Clear,0,2013-01-29 00:45:00
5:55 PM,59.0,24.8,27,29.83,10.0,Calm,Calm,-,N/A,,Clear,0,2013-01-29 00:55:00
6:15 PM,57.2,24.8,29,29.84,10.0,WSW,6.9,-,N/A,,Clear,240,2013-01-29 01:15:00
6:55 PM,57.2,23.0,27,29.84,10.0,Calm,Calm,-,N/A,,Clear,0,2013-01-29 01:55:00
7:15 PM,55.4,23.0,29,29.83,10.0,Calm,Calm,-,N/A,,Clear,0,2013-01-29 02:15:00
8:15 PM,50.0,24.8,37,29.82,10.0,Calm,Calm,-,N/A,,Clear,0,2013-01-29 03:15:00
8:55 PM,46.4,24.8,43,29.81,10.0,Calm,Calm,-,N/A,,Clear,0,2013-01-29 03:55:00
9:15 PM,46.4,24.8,43,29.80,10.0,Calm,Calm,-,N/A,,Clear,0,2013-01-29 04:15:00
9:35 PM,46.4,24.8,43,29.80,10.0,Calm,Calm,-,N/A,,Clear,0,2013-01-29 04:35:00
9:55 PM,48.2,24.8,40,29.79,10.0,Calm,Calm,-,N/A,,Partly Cloudy,0,2013-01-29 04:55:00
10:15 PM,46.4,26.6,46,29.78,10.0,Calm,Calm,-,N/A,,Scattered Clouds,0,2013-01-29 05:15:00
10:55 PM,53.6,26.6,35,29.80,10.0,Calm,Calm,-,N/A,,Mostly Cloudy,0,2013-01-29 05:55:00
11:15 PM,50.0,26.6,40,29.80,10.0,Calm,Calm,-,N/A,,Mostly Cloudy,0,2013-01-29 06:15:00
11:35 PM,50.0,26.6,40,29.80,9.0,Calm,Calm,-,N/A,,Scattered Clouds,0,2013-01-29 06:35:00
11:55 PM,50.0,26.6,40,29.80,10.0,Calm,Calm,-,N/A,,Clear,0,2013-01-29 06:55:00